Regional Weather Roundup
Issued by NWS

Home | Current Version | Previous Version | Text Only | Print | Product List | Glossary On
Versions: 1 2 3 4 5 6 7 8 9 10 11 12 13 14 15 16 17 18 19 20 21 22 23 24 25 26 27 28 29 30 31 32 33 34 35 36 37 38 39 40 41 42 43 44 45 46 47 48 49 50
000
ASUS43 KTOP 231008
RWRKS

WEATHER ROUNDUP FOR KANSAS
NATIONAL WEATHER SERVICE GOODLAND KS
500 AM CDT WED JUL 23 2014

NOTE:  "FAIR" INDICATES FEW OR NO CLOUDS BELOW 12,000 FEET WITH NO
SIGNIFICANT WEATHER AND/OR OBSTRUCTIONS TO VISIBILITY.

KSZ001>006-013>018-027>032-041>047-231100-
NORTHWEST KANSAS

CITY           SKY/WX    TMP DP  RH WIND       PRES   REMARKS
GOODLAND       CLEAR     68  67  96 E14       30.27R
HAYS           CLEAR     63  63 100 NE9       30.19R
HILL CITY      PTCLDY    72  68  87 NE13      30.23R
RUSSELL        CLOUDY    75  69  81 NE9       30.16R
$$

KSZ061>065-074>080-084>089-231100-
SOUTHWEST KANSAS

CITY           SKY/WX    TMP DP  RH WIND       PRES   REMARKS
DODGE CITY     CLEAR     71  61  70 SW6       30.18S
ELKHART          N/A     72  63  73 SW7         N/A
GARDEN CITY    CLEAR     69  64  84 S6        30.20S
GREAT BEND     CLEAR     75  72  88 NE8       30.15S
LIBERAL        CLEAR     70  63  78 SW6       30.22S
PRATT          CLEAR     72  66  83 N8        30.17R
$$

KSZ066>073-081>083-090>101-231100-
SOUTHEAST KANSAS

CITY           SKY/WX    TMP DP  RH WIND       PRES   REMARKS
CHANUTE        CLEAR     78  73  84 NW6       30.07F
COFFEYVILLE    PTCLDY    77  75  93 CALM      30.07S FOG
HUTCHINSON     CLEAR     77  71  82 N8        30.12S
MEDICINE LODGE   N/A     72  71  97 CALM      30.12R
NEWTON         CLEAR     75  66  73 NE7       30.15S
PARSONS        CLEAR     74  72  93 S3        30.08F FOG
WICHITA INTL   CLEAR     79  72  79 N6        30.11R
WICHITA JABRA  PTCLDY    77  72  84 CALM      30.11S
WICHITA MCCONL CLEAR     77  76  96 N5        30.12R
WINFIELD       CLEAR     75  73  93 CALM      30.10F
$$

KSZ007>012-019>026-033>040-048>060-102>105-231100-
NORTHEAST KANSAS

CITY           SKY/WX    TMP DP  RH WIND       PRES   REMARKS
CONCORDIA      MOCLDY    72  68  87 NE9       30.17R
EMPORIA        CLEAR     76  73  91 N7        30.11R
LAWRENCE       CLEAR     77  69  76 N6        30.10S HAZE
MANHATTAN      CLEAR     76  68  76 NE10      30.13S
MARYSVILLE     PTCLDY    68  66  94 N5        30.19R
OLATHE IND     CLEAR     76  71  85 N8        30.10R
OLATHE EXE     CLEAR     77  70  79 NE12      30.09R
SALINA         CLEAR     79  70  74 NE7       30.14R
TOPEKA BILLARD CLEAR     76  70  82 N8        30.11S
TOPEKA FORBES  CLEAR     76  69  79 N7        30.11S
$$



USA.gov is the U.S. government's official web portal to all federal, state and local government web resources and services.